Regional Weather Roundup
Issued by NWS

Home | Current Version | Previous Version | Text Only | Print | Product List | Glossary Off
Versions: 1 2 3 4 5 6 7 8 9 10 11 12 13 14 15 16 17 18 19 20 21 22 23 24 25 26 27 28 29 30 31 32 33 34 35 36 37 38 39 40 41 42 43 44 45 46 47 48 49 50

000
ASUS43 KLOT 302008
RWRIL

ILLINOIS REGIONAL WEATHER ROUNDUP
NATIONAL WEATHER SERVICE CHICAGO/ROMEOVILLE IL
300 PM CDT SUN APR 30 2017

NOTE: "FAIR" INDICATES FEW OR NO CLOUDS BELOW 12,000 FEET WITH NO
SIGNIFICANT WEATHER AND/OR OBSTRUCTIONS TO VISIBILITY.

* THESE STATIONS ARE NOT UNDER NWS QUALITY CONTROL. THEY ALSO MAY NOT
  REPORT WEATHER SUCH AS PRECIPITATION OR FOG.

ILZ001-002-007-009-015-016-024-302100-
NORTHWEST ILLINOIS

CITY           SKY/WX    TMP DP  RH WIND       PRES   REMARKS
MOLINE         CLOUDY    48  45  89 E18G26    29.70F
STERLING*      CLOUDY    48  46  93 E20       29.76F
SAVANNA*       LGT RAIN  47  44  90 NE14G22   29.76F
$$

ILZ003-004-008-010-011-017-018-302100-
NORTH CENTRAL ILLINOIS

CITY           SKY/WX    TMP DP  RH WIND       PRES   REMARKS
ROCKFORD       CLOUDY    49  43  80 E15G23    29.82R
FREEPORT*      CLOUDY    45  43  92 NE18      29.81F
ROCHELLE*      LGT RAIN  46  46  97 E14       29.79F
DE KALB*       CLOUDY    46  45  94 NE17      29.79F FOG
PERU*          CLOUDY    49  46  90 NE14G22   29.75F
$$

ILZ005-006-012>014-019>023-302100-
NORTHEAST ILLINOIS

CITY           SKY/WX    TMP DP  RH WIND       PRES   REMARKS
CHICAGO-OHARE  DRIZZLE   45  43  93 NE16      29.83R FOG
CHICAGO-MIDWAY CLOUDY    46  44  93 NE10G22   29.83R
AURORA         CLOUDY    49  46  90 E14       29.81R
LANSING*       CLOUDY    46  46 100 N10       29.81F FOG
JOLIET*        CLOUDY    50  48  95 NE12      29.78F
WAUKEGAN       CLOUDY    43  42  97 NE13G28   29.83R FOG
DUPAGE AIRPORT CLOUDY    46  46 100 NE15      29.80S FOG
KANKAKEE*      DRIZZLE   55  54  98 NE8       29.77F
WHEELING       CLOUDY    44  44 100 NE14G20   29.84R FOG
MORRIS*        CLOUDY    50  47  91 E9G16     29.76F
ROMEOVILLE*    CLOUDY    47  47 100 NE13      29.79F
NORTHERLY ISL    N/A     43  42  97 N13         N/A
$$

LMZ740>746-302100-
SOUTHERN LAKE MICHIGAN

STATION/POSITION SKY/WX   TEMP    WIND        PRES    VSBY  WAVE
                          AIR SEA DIR/SP/G                  HT/PER
                          (F)     (DEG/KT/KT) (MB)    (MI)  (FT/S)
SOUTHERN BUOY              41 41   20/ 17/ 19 1010.4          4/ 6
HARRISON CRIB              43      20/ 18/ 19   N/A
BURNHAM HARBOR             43      20/ 11/ 16   N/A
CALUMET HARBOR             44     350/  9/ 12 1009.8R
BURNS HARBOR               45     360/  5/  7 1010.2S
MICHIGAN CITY              45     350/  9/ 10   N/A
MICHIGAN CITY 6N           44 49                N/A           3/ 5
ST. JOSEPH                 45 46  360/  8/ 10 1009.8          2/ 5
$$

ILZ025>027-034>036-040-047-049-050-058-095>099-302100-
WEST-CENTRAL ILLINOIS

CITY           SKY/WX    TMP DP  RH WIND       PRES   REMARKS
QUINCY         CLOUDY    53  53 100 NE17      29.54F
GALESBURG*     DRIZZLE   48  48  98 NE13      29.68F
MACOMB*        LGT RAIN  50  50  99 E22       29.66F
JACKSONVILLE*  CLOUDY    64  63  95 E10       29.60F
PITTSFIELD*    CLOUDY    64  63  97 E12G18    29.57F
$$

ILZ028>032-037-038-041>044-048-051>054-059>061-302100-
CENTRAL ILLINOIS

CITY           SKY/WX    TMP DP  RH WIND       PRES   REMARKS
PONTIAC        LGT RAIN  52  51  98 NE15      29.74F
BLOOMINGTON    LGT RAIN  55  55 100 NE16      29.69F FOG
DECATUR        PTSUNNY   65  65 100 SE9       29.67F
PEORIA         RAIN      51  50  96 NE14      29.70F FOG
LACON*         LGT RAIN  49  49  99 NE3       29.73F
LINCOLN*       RAIN      65  65 100 S10G17    29.64F
SPRINGFIELD    PTSUNNY   67  64  90 SE12      29.63F
TAYLORVILLE    CLOUDY    65  65  97 SE15      29.64F
$$

ILZ033-039-045-046-055>057-062-063-302100-
EAST-CENTRAL ILLINOIS

CITY           SKY/WX    TMP DP  RH WIND       PRES   REMARKS
CHAMPAIGN      CLOUDY    66  63  90 S13       29.71F
RANTOUL*       DRIZZLE   67  66  96 S12       29.72F
MATTOON        LGT RAIN  66  65  96 S9        29.69F
PARIS*         CLOUDY   N/A N/A N/A SE13      29.73F
$$

ILZ079-100>102-302100-
SOUTHWEST ILLINOIS

CITY           SKY/WX    TMP DP  RH WIND       PRES   REMARKS
ALTON          CLOUDY    66  64  94 SE18      29.59F
BELLEVILLE     CLOUDY    66  66 100 E15       29.60F
CAHOKIA*       CLOUDY    70  65  84 SE16G25   29.58F
$$

ILZ064>066-069>071-074>076-080>082-084>086-088>090-092>094-302100-
SOUTH-CENTRAL ILLINOIS

CITY           SKY/WX    TMP DP  RH WIND       PRES   REMARKS
CARBONDALE     CLOUDY    68  68 100 SE7       29.65F
CAIRO*         CLOUDY    69  66  90 S7        29.69R
EFFINGHAM*     LGT RAIN  67  67 100 E12G17    29.71S
MARION         CLOUDY    72  70  94 S12       29.66F
MT. VERNON     LGT RAIN  67  65  93 E5        29.68F
CENTRALIA*     CLOUDY    68  66  94 SE12G18   29.65F
SALEM*         LGT RAIN  68  65  90 SE9G17    29.67F
METROPOLIS*    CLOUDY    71  69  93 SE8G16    29.69F
$$

ILZ067-068-072-073-078-083-087-091-302100-
SOUTHEAST ILLINOIS

CITY           SKY/WX    TMP DP  RH WIND       PRES   REMARKS
LAWRENCEVILLE  CLOUDY    69  67  93 SE13      29.73F
FLORA*         CLOUDY   N/A N/A N/A SE13      29.71S
FAIRFIELD*     LGT RAIN  67  67  99 E6        29.68F
HARRISBURG*    LGT RAIN  70  68  93 S25G35    29.67F
ROBINSON*      CLOUDY    66  65  96 SE10      29.74F
CARMI*         LGT RAIN  70  68  95 SE29      29.69F
$$

ABBREVIATIONS USED IN REMARKS
   TC - TEMPERATURE IN CELSIUS
  WCI - WIND CHILL INDEX
   HX - HEAT INDEX
  VSB - VISIBILITY
$$




USA.gov is the U.S. government's official web portal to all federal, state and local government web resources and services.